Location: Arborea
(39.7744°N, 8.5819°E)
Time: 07:49:30
(UTC+00:00)

Cosmos 1953 - Pass Details

Date: 24 October 2021
Orbit: 537 x 557 km, 82.5° (Epoch: 02 December)

Event Time Altitude Azimuth Distance (km) Brightness Sun altitude
Rises 17:27:29 0° 208° (SSW) 2,724 6.4 -11.0°
Reaches altitude 10° 17:29:49 10° 219° (SW) 1,836 5.7 -11.5°
Maximum altitude 17:33:27 32° 283° (WNW) 979 4.4 -12.1°
Drops below altitude 10° 17:37:07 10° 347° (NNW) 1,850 5.1 -12.9°
Sets 17:39:29 0° 358° (N) 2,750 5.9 -13.3°
